Find Starlink 32328

NORAD ID: 62489 Int'l Des: 2025-003 Owner: SPXS Country: US Constellation: starlink operational
LEOCIRCULAR

現在のビュー

3D地球を読み込み中...

About Starlink 32328

Starlink 32328 (NORAD 62489) is a starlink constellation satellite (v2 mini) launched Jan 6, 2025 by SPXS of US. It operates in LEO, CIRCULAR orbit with a mass of 730.00 kg.

Starlink 32328について

説明を読み込み中...

次回通過

Passes for default location (London). Set your location on the main map for personalized predictions.

高度履歴

Loading altitude history...

軌道要素

1 62489U 25003C 26169.48414977 .00013660 00000-0 50487-3 0 9990
2 62489 43.0023 80.0054 0001817 260.9087 99.1560 15.27588095 82087
Epoch: Jun 18, 2026 • Age: 13 hours

現在のステータス

高度 485.4 km
速度 7.63 km/s
衛星直下点 34.44°N, 149.5°W
打ち上げ日 Jan 6, 2025
運用期間 1.4 years
タイプ internet

技術仕様

分類 Payload
質量 730.00 kg
乾燥質量 700.00 kg
総質量 730.00 kg
長さ 0.30 m
直径 4.10 m
スパン 29.00 m
形状 Box + pan
製造者 SPXS
バスタイプ Starlink V2M
フェーズステータス In Orbit
所有者/国 SPXS/US

Most Searched